When you browse on this site, cookies collect data to enhance your experience and personalize the content and advertising you see.
Visit our Privacy Policy to learn more. By continuing to use the site, you agree to this use of cookies and data.
  • In Czech Republic
  • List of Countries
  • For 7 days
  • Water Temperature
  • Satellite Maps
  • Weather Map
  • Weather Widgets
  • user-avatar
    Login

    Hourly Weather Waukesha

    Today, 21 April, Sunday

    Time Temperature Precipitation Wind Pressure Humidity
    00:00 +8°C° 0 mm 2 mps 735 mmHg 50%
    01:00 +8°C° 0 mm 2 mps 735 mmHg 53%
    02:00 +7°C° 0 mm 2 mps 736 mmHg 56%
    03:00 +7°C° 0 mm 2 mps 736 mmHg 59%
    04:00 +7°C° 0 mm 2 mps 736 mmHg 62%
    05:00 +8°C° 0 mm 2 mps 736 mmHg 64%
    06:00 +8°C° 0 mm 2 mps 736 mmHg 67%
    07:00 +10°C° 0 mm 3 mps 737 mmHg 63%
    08:00 +13°C° 0 mm 3 mps 738 mmHg 59%
    09:00 +17°C° 0 mm 3 mps 738 mmHg 54%
    10:00 +18°C° 0 mm 3 mps 738 mmHg 54%
    11:00 +19°C° 0 mm 4 mps 738 mmHg 53%
    12:00 +20°C° 0 mm 5 mps 738 mmHg 52%
    13:00 +21°C° 0 mm 5 mps 738 mmHg 51%
    14:00 +22°C° 0 mm 5 mps 738 mmHg 50%
    15:00 +22°C° 0 mm 5 mps 737 mmHg 50%
    16:00 +21°C° 0 mm 5 mps 737 mmHg 54%
    17:00 +19°C° 0 mm 4 mps 737 mmHg 58%
    18:00 +18°C° 0 mm 3 mps 737 mmHg 62%
    19:00 +17°C° 0 mm 3 mps 738 mmHg 62%
    20:00 +17°C° 0 mm 3 mps 738 mmHg 63%
    21:00 +15°C° 0 mm 4 mps 738 mmHg 63%
    22:00 +15°C° 0 mm 4 mps 738 mmHg 66%
    23:00 +15°C° 0 mm 4 mps 739 mmHg 68%

    Tomorrow, 22 April, Monday

    Time Temperature Precipitation Wind Pressure Humidity
    00:00 +15°C° 0 mm 4 mps 739 mmHg 70%
    01:00 +14°C° 0 mm 4 mps 738 mmHg 74%
    02:00 +14°C° 0 mm 4 mps 738 mmHg 78%
    03:00 +13°C° 0 mm 4 mps 738 mmHg 82%
    04:00 +13°C° 0 mm 4 mps 738 mmHg 84%
    05:00 +13°C° 0 mm 4 mps 738 mmHg 86%
    06:00 +13°C° 0 mm 3 mps 738 mmHg 88%
    07:00 +15°C° 0 mm 4 mps 738 mmHg 83%
    08:00 +18°C° 0 mm 4 mps 738 mmHg 78%
    09:00 +19°C° 0 mm 5 mps 738 mmHg 73%
    10:00 +21°C° 0 mm 5 mps 738 mmHg 70%
    11:00 +22°C° 0 mm 5 mps 738 mmHg 66%
    12:00 +23°C° 0 mm 5 mps 737 mmHg 63%
    13:00 +22°C° 0.3 mm 5 mps 737 mmHg 66%
    14:00 +22°C° 0.3 mm 5 mps 736 mmHg 69%
    15:00 +21°C° 0.3 mm 4 mps 736 mmHg 73%
    16:00 +21°C° 0.1 mm 4 mps 736 mmHg 75%
    17:00 +20°C° 0.1 mm 4 mps 735 mmHg 77%
    18:00 +20°C° 0.1 mm 4 mps 735 mmHg 79%
    19:00 +20°C° 0.3 mm 4 mps 735 mmHg 82%
    20:00 +19°C° 0.3 mm 5 mps 735 mmHg 86%
    21:00 +19°C° 0.3 mm 5 mps 735 mmHg 89%
    22:00 +17°C° 1.1 mm 5 mps 734 mmHg 91%
    23:00 +18°C° 1.1 mm 4 mps 734 mmHg 92%

    Day after tomorrow, 23 April, Tuesday

    Time Temperature Precipitation Wind Pressure Humidity
    00:00 +17°C° 1.1 mm 4 mps 734 mmHg 94%
    01:00 +17°C° 1 mm 4 mps 734 mmHg 95%
    02:00 +17°C° 1 mm 3 mps 734 mmHg 95%
    03:00 +17°C° 1 mm 3 mps 734 mmHg 96%
    04:00 +14°C° 0.6 mm 4 mps 734 mmHg 94%
    05:00 +12°C° 0.6 mm 4 mps 734 mmHg 93%
    06:00 +10°C° 0.6 mm 5 mps 735 mmHg 91%
    07:00 +9°C° 0.1 mm 5 mps 736 mmHg 89%
    08:00 +8°C° 0.1 mm 5 mps 736 mmHg 87%
    09:00 +8°C° 0.1 mm 4 mps 737 mmHg 84%
    10:00 +8°C° 0 mm 4 mps 738 mmHg 83%
    11:00 +8°C° 0 mm 4 mps 738 mmHg 81%
    12:00 +10°C° 0 mm 4 mps 739 mmHg 79%
    13:00 +10°C° 0 mm 3 mps 739 mmHg 78%
    14:00 +11°C° 0 mm 3 mps 739 mmHg 76%
    15:00 +12°C° 0 mm 2 mps 739 mmHg 75%
    16:00 +12°C° 0 mm 2 mps 739 mmHg 76%
    17:00 +10°C° 0 mm 2 mps 739 mmHg 78%
    18:00 +10°C° 0 mm 2 mps 740 mmHg 79%
    19:00 +9°C° 0 mm 2 mps 740 mmHg 79%
    20:00 +7°C° 0 mm 2 mps 740 mmHg 79%
    21:00 +6°C° 0 mm 2 mps 741 mmHg 78%
    22:00 +6°C° 0 mm 2 mps 741 mmHg 75%
    23:00 +4°C° 0 mm 3 mps 741 mmHg 72%

    24 April, Wednesday

    Time Temperature Precipitation Wind Pressure Humidity
    00:00 +4°C° 0 mm 3 mps 741 mmHg 69%
    01:00 +5°C° 0 mm 2 mps 741 mmHg 68%
    02:00 +4°C° 0 mm 2 mps 741 mmHg 68%
    03:00 +4°C° 0 mm 2 mps 741 mmHg 67%
    04:00 +4°C° 0 mm 2 mps 741 mmHg 69%
    05:00 +4°C° 0 mm 2 mps 742 mmHg 71%
    06:00 +3°C° 0 mm 3 mps 742 mmHg 72%
    07:00 +5°C° 0 mm 3 mps 742 mmHg 68%
    08:00 +7°C° 0 mm 3 mps 742 mmHg 63%
    09:00 +9°C° 0 mm 3 mps 742 mmHg 58%
    10:00 +10°C° 0 mm 4 mps 742 mmHg 55%
    11:00 +11°C° 0 mm 4 mps 741 mmHg 51%
    12:00 +12°C° 0 mm 4 mps 741 mmHg 47%
    13:00 +12°C° 0 mm 4 mps 740 mmHg 46%
    14:00 +12°C° 0 mm 3 mps 740 mmHg 45%
    15:00 +13°C° 0 mm 3 mps 740 mmHg 43%
    16:00 +11°C° 0 mm 3 mps 739 mmHg 47%
    17:00 +10°C° 0 mm 2 mps 739 mmHg 51%
    18:00 +9°C° 0 mm 2 mps 739 mmHg 55%
    19:00 +9°C° 0 mm 2 mps 739 mmHg 56%
    20:00 +8°C° 0 mm 2 mps 739 mmHg 56%
    21:00 +7°C° 0 mm 2 mps 739 mmHg 57%
    22:00 +8°C° 0.2 mm 1 mps 739 mmHg 61%
    23:00 +8°C° 0.2 mm 1 mps 738 mmHg 66%

    25 April, Thursday

    Time Temperature Precipitation Wind Pressure Humidity
    00:00 +8°C° 0.2 mm 1 mps 738 mmHg 70%
    01:00 +8°C° 0.4 mm 1 mps 738 mmHg 74%
    02:00 +8°C° 0.4 mm 1 mps 738 mmHg 78%
    03:00 +8°C° 0.4 mm 1 mps 737 mmHg 81%
    04:00 +8°C° 0.1 mm 1 mps 738 mmHg 83%
    05:00 +8°C° 0.1 mm 1 mps 738 mmHg 84%
    06:00 +8°C° 0.1 mm 1 mps 738 mmHg 85%
    07:00 +10°C° 0 mm 1 mps 738 mmHg 80%
    08:00 +12°C° 0 mm 1 mps 738 mmHg 75%
    09:00 +13°C° 0 mm 1 mps 738 mmHg 70%
    10:00 +15°C° 0 mm 1 mps 737 mmHg 66%
    11:00 +18°C° 0 mm 1 mps 737 mmHg 62%
    12:00 +20°C° 0 mm 1 mps 737 mmHg 58%
    13:00 +20°C° 0 mm 1 mps 737 mmHg 55%
    14:00 +20°C° 0 mm 2 mps 737 mmHg 52%
    15:00 +20°C° 0 mm 2 mps 737 mmHg 49%
    16:00 +19°C° 0 mm 2 mps 737 mmHg 55%
    17:00 +18°C° 0 mm 2 mps 737 mmHg 62%
    18:00 +17°C° 0 mm 2 mps 737 mmHg 68%
    19:00 +15°C° 0 mm 2 mps 738 mmHg 73%
    20:00 +14°C° 0 mm 2 mps 738 mmHg 78%
    21:00 +13°C° 0 mm 2 mps 739 mmHg 83%
    22:00 +13°C° 0 mm 2 mps 739 mmHg 85%
    23:00 +12°C° 0 mm 2 mps 739 mmHg 86%

    26 April, Friday

    Time Temperature Precipitation Wind Pressure Humidity
    00:00 +10°C° 0 mm 2 mps 739 mmHg 88%
    01:00 +10°C° 0 mm 2 mps 740 mmHg 88%
    02:00 +9°C° 0 mm 2 mps 740 mmHg 88%
    03:00 +9°C° 0 mm 2 mps 740 mmHg 88%
    04:00 +9°C° 0 mm 2 mps 740 mmHg 87%
    05:00 +9°C° 0 mm 2 mps 741 mmHg 86%
    06:00 +10°C° 0 mm 1 mps 741 mmHg 85%
    07:00 +12°C° 0 mm 1 mps 742 mmHg 77%
    08:00 +14°C° 0 mm 1 mps 742 mmHg 69%
    09:00 +17°C° 0 mm 2 mps 743 mmHg 60%
    10:00 +19°C° 0 mm 1 mps 743 mmHg 52%
    11:00 +20°C° 0 mm 1 mps 743 mmHg 43%
    12:00 +22°C° 0 mm 1 mps 743 mmHg 35%
    13:00 +22°C° 0 mm 1 mps 742 mmHg 35%
    14:00 +22°C° 0 mm 1 mps 742 mmHg 36%
    15:00 +22°C° 0 mm 1 mps 742 mmHg 36%
    16:00 +19°C° 0 mm 2 mps 742 mmHg 43%
    17:00 +18°C° 0 mm 2 mps 742 mmHg 50%
    18:00 +16°C° 0 mm 2 mps 742 mmHg 57%
    19:00 +15°C° 0 mm 2 mps 742 mmHg 58%
    20:00 +13°C° 0 mm 3 mps 742 mmHg 58%
    21:00 +12°C° 0 mm 3 mps 742 mmHg 59%
    22:00 +12°C° 0 mm 3 mps 742 mmHg 56%
    23:00 +12°C° 0 mm 3 mps 742 mmHg 53%
    Show more